Weather History for KABY - November, 2013

Change the Weather History Date:

Saturday, November 2, 2013

  Actual Average Record
Temperature  
Mean Temperature 64 °F 63 °F  
Max Temperature 77 °F 76 °F 88 °F (1956)
Min Temperature 51 °F 50 °F 31 °F (1993)
Degree Days  
Heating Degree Days 1 4  
Month to date heating degree days 1 8  
Since 1 July heating degree days 42 58  
Cooling Degree Days 0 2  
Month to date cooling degree days 6 4  
Year to date cooling degree days 2394 2507  
Growing Degree Days 13 (Base 50)    
Moisture  
Dew Point 53 °F    
Average Humidity 67    
Maximum Humidity 100    
Minimum Humidity 33    
Precipitation  
Precipitation 0.00 in - 0.02 in (2010)
Month to date precipitation 0.98  
Year to date precipitation 43.87  
Sea Level Pressure  
Sea Level Pressure 29.93 in    
Wind  
Wind Speed 5 mph (WNW)    
Max Wind Speed 15 mph    
Max Gust Speed 20 mph    
Visibility 8 miles    
Events Fog    
T = Trace of Precipitation, MM = Missing Value Source: NWS Daily Summary

Daily Weather History Graph

Daily Weather History Graph

Search for Another Location

Airport or City:

Trip Planner

Search our weather history database for the weather conditions in past years. The results will help you decide how hot, cold, wet, or windy it might be!

Date:

Astronomy

Nov. 02, 2013 Rise Set
Actual Time 7:53 AM EDT 6:46 PM EDT
Civil Twilight 7:28 AM EDT 7:11 PM EDT
Nautical Twilight 6:59 AM EDT 7:40 PM EDT
Astronomical Twilight 6:31 AM EDT 8:08 PM EDT
Moon 6:52 AM EDT (11/2) 6:15 PM EDT (11/2)
Length of Visible Light 11h 43m
Length of Day
10h 52m
Waning Crescent, 1% of the Moon is Illuminated
Nov 2
Waning Crescent
Nov 3
New
Nov 10
First Quarter
Nov 17
Full
Nov 25
Last Quarter

Hourly Weather History & Observations

Time (EDT) Temp. Dew Point Humidity Pressure Visibility Wind Dir Wind Speed Gust Speed Precip Events Conditions
12:34 AM 64.4 °F 64.4 °F 100% 29.86 in 10.0 mi NW 9.2 mph - N/A   Mostly Cloudy
12:44 AM 64.4 °F 62.6 °F 94% 29.86 in 10.0 mi NW 9.2 mph - N/A   Scattered Clouds
12:53 AM 64.0 °F 63.0 °F 96% 29.86 in 8.0 mi NW 8.1 mph - N/A   Partly Cloudy
1:53 AM 63.0 °F 62.1 °F 97% 29.86 in 7.0 mi WNW 4.6 mph - N/A   Clear
2:53 AM 61.0 °F 60.1 °F 97% 29.86 in 8.0 mi West 5.8 mph - N/A   Clear
3:53 AM 60.1 °F 59.0 °F 96% 29.86 in 10.0 mi NW 4.6 mph - N/A   Clear
4:53 AM 57.9 °F 57.0 °F 97% 29.87 in 7.0 mi Calm Calm - N/A   Clear
5:53 AM 57.0 °F 55.9 °F 96% 29.88 in 8.0 mi Calm Calm - N/A   Clear
6:53 AM 54.0 °F 54.0 °F 100% 29.91 in 1.8 mi Calm Calm - N/A   Clear
7:04 AM 53.6 °F 53.6 °F 100% 29.91 in 0.5 mi Calm Calm - N/A Fog Fog
7:53 AM 53.1 °F 52.0 °F 96% 29.93 in 0.5 mi Calm Calm - N/A Fog Fog
8:03 AM 51.8 °F 51.8 °F 100% 29.93 in 5.0 mi NW 3.5 mph - N/A   Clear
8:53 AM 55.0 °F 54.0 °F 96% 29.96 in 9.0 mi NW 4.6 mph - N/A   Clear
9:53 AM 57.9 °F 55.0 °F 90% 29.99 in 10.0 mi WNW 3.5 mph - N/A   Clear
10:53 AM 63.0 °F 55.9 °F 78% 29.98 in 10.0 mi WNW 4.6 mph - N/A   Clear
11:53 AM 66.0 °F 55.0 °F 68% 29.99 in 10.0 mi West 5.8 mph - N/A   Clear
12:53 PM 71.1 °F 52.0 °F 51% 29.96 in 10.0 mi WNW 5.8 mph - N/A   Clear
1:53 PM 73.9 °F 48.0 °F 40% 29.94 in 10.0 mi WNW 10.4 mph - N/A   Clear
2:53 PM 75.0 °F 45.0 °F 34% 29.92 in 10.0 mi WNW 11.5 mph 17.3 mph N/A   Clear
3:53 PM 75.9 °F 44.1 °F 32% 29.90 in 10.0 mi WNW 12.7 mph 16.1 mph N/A   Clear
4:53 PM 75.0 °F 45.0 °F 34% 29.90 in 10.0 mi WNW 12.7 mph 19.6 mph N/A   Clear
5:53 PM 71.1 °F 46.9 °F 42% 29.91 in 10.0 mi WNW 5.8 mph - N/A   Scattered Clouds
6:53 PM 64.0 °F 52.0 °F 65% 29.94 in 10.0 mi West 3.5 mph - N/A   Clear
7:53 PM 63.0 °F 48.9 °F 60% 29.98 in 10.0 mi NW 6.9 mph - N/A   Clear
8:53 PM 60.1 °F 46.9 °F 62% 30.01 in 10.0 mi NW 4.6 mph - N/A   Clear
9:53 PM 57.9 °F 46.0 °F 65% 30.04 in 10.0 mi WNW 4.6 mph - N/A   Clear
10:53 PM 55.9 °F 45.0 °F 67% 30.06 in 10.0 mi WNW 4.6 mph - N/A   Clear
11:53 PM 53.1 °F 46.0 °F 77% 30.07 in 10.0 mi NW 3.5 mph - N/A   Clear